Dades meteomassalio
Diari Summary for Noviembre 4, 2017 Units:  Metric    English   Both
« Previous Day
Next Day »
Diari Semanal Mensual Anual Personalitzat
  Maxima: Minima: Mijana:
Temperatura: 20.0 °C 8.3 °C 13.6 °C
Rosada: 15.1 °C 5.9 °C 9.9 °C
Humitat: 92 % 55 % 80 %
Velocitat del vent: 44.4 km/h 0.0 km/h 5.5 km/h
Racha vent: 44.4 km/h - -
Vent:- - WSW
Pressio: 1015.5 hPa 1011.4 hPa -
Pluja: 2.3 mm    
Historical Graphs
 
 
Tabular Data for Noviembre 4, 2017
Time Temperature Dew Point Pressure Wind Wind Speed Wind Gust Humidity Rainfall Rate (Hourly) solar Conditions
00:00 8.3 °C 5.9 °C 1015.5 hPa Calm     85 % 0.0 mm 0.0 W/m2 RA
00:05 8.3 °C 5.9 °C 1015.5 hPa Calm     85 % 0.0 mm 0.0 W/m2 CLR
00:10 8.3 °C 5.9 °C 1015.5 hPa Calm     85 % 0.0 mm 0.0 W/m2 CLR
00:16 8.3 °C 5.9 °C 1015.5 hPa Calm     85 % 0.0 mm 0.0 W/m2 CLR
00:21 8.3 °C 5.9 °C 1015.5 hPa Calm     85 % 0.0 mm 0.0 W/m2 CLR
00:25 8.3 °C 6.1 °C 1015.5 hPa Calm     86 % 0.0 mm 0.0 W/m2 CLR
00:31 8.3 °C 6.1 °C 1015.5 hPa Calm     86 % 0.0 mm 0.0 W/m2 CLR
00:36 8.3 °C 6.1 °C 1015.5 hPa Calm     86 % 0.0 mm 0.0 W/m2 CLR
00:41 8.9 °C 6.7 °C 1015.5 hPa Calm     86 % 0.0 mm 0.0 W/m2 CLR
00:46 8.9 °C 6.7 °C 1015.5 hPa Calm     86 % 0.0 mm 0.0 W/m2 CLR
00:51 8.9 °C 6.7 °C 1015.5 hPa Calm     86 % 0.0 mm 0.0 W/m2 CLR
00:56 8.9 °C 6.7 °C 1015.5 hPa Calm     86 % 0.0 mm 0.0 W/m2 CLR
00:59 8.9 °C 6.7 °C 1015.5 hPa Calm     86 % 0.0 mm 0.0 W/m2 CLR
01:04 8.9 °C 6.7 °C 1015.5 hPa Calm     86 % 0.0 mm 0.0 W/m2 CLR
01:09 8.9 °C 6.7 °C 1015.5 hPa Calm     86 % 0.0 mm 0.0 W/m2 CLR
01:14 8.9 °C 6.7 °C 1015.5 hPa Calm     86 % 0.0 mm 0.0 W/m2 CLR
01:19 8.9 °C 6.7 °C 1015.1 hPa Calm     86 % 0.0 mm 0.0 W/m2 CLR
01:24 8.9 °C 6.7 °C 1015.1 hPa Calm     86 % 0.0 mm 0.0 W/m2 CLR
01:29 8.9 °C 6.8 °C 1015.1 hPa Calm     87 % 0.0 mm 0.0 W/m2 CLR
01:34 8.9 °C 6.7 °C 1015.1 hPa Calm     86 % 0.0 mm 0.0 W/m2 CLR
01:39 8.9 °C 6.7 °C 1015.1 hPa Calm     86 % 0.0 mm 0.0 W/m2 CLR
01:45 9.4 °C 7.4 °C 1015.1 hPa Calm     87 % 0.0 mm 0.0 W/m2 CLR
01:49 9.4 °C 7.4 °C 1015.1 hPa Calm     87 % 0.0 mm 0.0 W/m2 CLR
01:55 9.4 °C 7.4 °C 1014.8 hPa Calm     87 % 0.0 mm 0.0 W/m2 CLR
02:00 9.4 °C 7.4 °C 1014.8 hPa Calm     87 % 0.0 mm 0.0 W/m2 CLR
02:05 8.9 °C 6.8 °C 1014.8 hPa Calm     87 % 0.0 mm 0.0 W/m2 CLR
02:10 8.9 °C 6.7 °C 1014.8 hPa Calm     86 % 0.0 mm 0.0 W/m2 CLR
02:11 8.9 °C 6.7 °C 1014.8 hPa Calm     86 % 0.0 mm 0.0 W/m2 CLR
02:16 8.9 °C 6.7 °C 1014.8 hPa Calm     86 % 0.0 mm 0.0 W/m2 CLR
02:21 8.3 °C 6.1 °C 1014.8 hPa Calm     86 % 0.0 mm 0.0 W/m2 CLR
02:22 8.3 °C 6.1 °C 1014.8 hPa Calm     86 % 0.0 mm 0.0 W/m2 CLR
02:27 8.3 °C 6.1 °C 1014.8 hPa Calm     86 % 0.0 mm 0.0 W/m2 CLR
02:32 8.3 °C 6.3 °C 1014.8 hPa Calm     87 % 0.0 mm 0.0 W/m2 CLR
02:37 8.3 °C 6.3 °C 1014.8 hPa Calm     87 % 0.0 mm 0.0 W/m2 CLR
02:42 8.3 °C 6.3 °C 1014.8 hPa Calm     87 % 0.0 mm 0.0 W/m2 CLR
02:47 8.3 °C 6.3 °C 1014.8 hPa Calm     87 % 0.0 mm 0.0 W/m2 CLR
02:52 8.3 °C 6.3 °C 1014.4 hPa Calm     87 % 0.0 mm 0.0 W/m2 CLR
02:57 8.3 °C 6.3 °C 1014.4 hPa Calm     87 % 0.0 mm 0.0 W/m2 CLR
03:02 8.3 °C 6.3 °C 1014.4 hPa Calm     87 % 0.0 mm 0.0 W/m2 CLR
03:07 8.3 °C 6.4 °C 1014.4 hPa Calm     88 % 0.0 mm 0.0 W/m2 CLR
03:12 8.9 °C 7.0 °C 1014.4 hPa Calm     88 % 0.0 mm 0.0 W/m2 CLR
03:17 8.9 °C 7.0 °C 1014.4 hPa Calm     88 % 0.0 mm 0.0 W/m2 CLR
03:22 8.9 °C 7.0 °C 1014.4 hPa Calm     88 % 0.0 mm 0.0 W/m2 CLR
03:27 8.9 °C 7.0 °C 1014.4 hPa Calm     88 % 0.0 mm 0.0 W/m2 CLR
03:32 8.9 °C 7.0 °C 1014.4 hPa Calm     88 % 0.0 mm 0.0 W/m2 CLR
03:37 8.9 °C 7.0 °C 1014.1 hPa Calm     88 % 0.0 mm 0.0 W/m2 CLR
03:42 8.9 °C 7.0 °C 1014.1 hPa Calm     88 % 0.0 mm 0.0 W/m2 CLR
03:47 9.4 °C 7.6 °C 1014.1 hPa Calm     88 % 0.0 mm 0.0 W/m2 CLR
03:52 9.4 °C 7.6 °C 1014.1 hPa Calm     88 % 0.0 mm 0.0 W/m2 CLR
03:57 9.4 °C 7.6 °C 1014.1 hPa Calm     88 % 0.0 mm 0.0 W/m2 CLR
04:02 8.9 °C 7.0 °C 1013.8 hPa Calm     88 % 0.0 mm 0.0 W/m2 CLR
04:07 8.9 °C 7.0 °C 1014.1 hPa Calm     88 % 0.0 mm 0.0 W/m2 CLR
04:12 9.4 °C 7.6 °C 1013.8 hPa Calm     88 % 0.0 mm 0.0 W/m2 CLR
04:20 9.4 °C 7.7 °C 1013.8 hPa Calm     89 % 0.0 mm 0.0 W/m2 CLR
04:21 9.4 °C 7.7 °C 1013.8 hPa Calm     89 % 0.0 mm 0.0 W/m2 CLR
04:24 9.4 °C 7.7 °C 1013.8 hPa Calm     89 % 0.0 mm 0.0 W/m2 CLR
04:27 10.0 °C 8.1 °C 1013.8 hPa Calm     88 % 0.0 mm 0.0 W/m2 CLR
04:28 10.0 °C 8.1 °C 1014.1 hPa Calm     88 % 0.0 mm 0.0 W/m2 CLR
04:29 10.0 °C 8.1 °C 1013.8 hPa Calm     88 % 0.0 mm 0.0 W/m2 CLR
04:38 10.0 °C 8.1 °C 1014.1 hPa SSW 1.9 km/h   88 % 0.0 mm 0.0 W/m2 CLR
04:43 10.0 °C 8.1 °C 1013.8 hPa Calm     88 % 0.0 mm 0.0 W/m2 CLR
04:48 10.0 °C 8.3 °C 1013.8 hPa Calm     89 % 0.0 mm 0.0 W/m2 CLR
04:53 10.6 °C 8.7 °C 1013.8 hPa Calm     88 % 0.0 mm 0.0 W/m2 CLR
04:58 10.6 °C 8.7 °C 1013.4 hPa Calm     88 % 0.0 mm 0.0 W/m2 CLR
05:03 10.6 °C 8.7 °C 1013.4 hPa Calm     88 % 0.0 mm 0.0 W/m2 CLR
05:08 10.6 °C 8.7 °C 1013.8 hPa West 5.6 km/h 5.6 km/h 88 % 0.0 mm 0.0 W/m2 CLR
05:13 10.6 °C 8.8 °C 1013.4 hPa Calm     89 % 0.0 mm 0.0 W/m2 CLR
05:18 10.6 °C 8.8 °C 1013.8 hPa Calm     89 % 0.0 mm 0.0 W/m2 CLR
05:23 10.6 °C 8.8 °C 1013.8 hPa Calm     89 % 0.0 mm 0.0 W/m2 CLR
05:28 10.6 °C 8.8 °C 1013.8 hPa Calm     89 % 0.0 mm 0.0 W/m2 CLR
05:33 10.6 °C 8.8 °C 1014.1 hPa Calm     89 % 0.0 mm 0.0 W/m2 CLR
05:38 10.6 °C 9.0 °C 1014.1 hPa Calm     90 % 0.0 mm 0.0 W/m2 CLR
05:43 10.6 °C 9.0 °C 1014.1 hPa Calm     90 % 0.0 mm 0.0 W/m2 CLR
05:48 10.6 °C 9.0 °C 1014.1 hPa Calm     90 % 0.0 mm 0.0 W/m2 CLR
05:53 11.1 °C 9.7 °C 1014.4 hPa SSW 7.4 km/h 7.4 km/h 91 % 0.0 mm 0.0 W/m2 CLR
05:58 11.1 °C 9.7 °C 1014.4 hPa Calm     91 % 0.0 mm 0.0 W/m2 CLR
06:03 11.1 °C 9.7 °C 1014.4 hPa SE 6.4 km/h 6.4 km/h 91 % 0.3 mm 0.0 W/m2 RA
06:08 11.1 °C 9.7 °C 1014.4 hPa South 11.1 km/h 11.1 km/h 91 % 0.3 mm 0.0 W/m2
06:13 11.1 °C 9.7 °C 1014.4 hPa Calm     91 % 0.3 mm 0.0 W/m2 CLR
06:18 11.1 °C 9.7 °C 1014.4 hPa Calm     91 % 0.3 mm 0.0 W/m2 CLR
06:23 11.1 °C 9.8 °C 1014.4 hPa Calm     92 % 0.3 mm 0.0 W/m2 CLR
06:28 11.1 °C 9.7 °C 1014.1 hPa Calm     91 % 0.3 mm 0.0 W/m2 CLR
06:33 11.1 °C 9.7 °C 1014.1 hPa Calm     91 % 0.3 mm 0.0 W/m2 CLR
06:38 11.1 °C 9.7 °C 1013.8 hPa Calm     91 % 0.3 mm 0.0 W/m2 CLR
06:43 11.1 °C 9.7 °C 1013.8 hPa Calm     91 % 0.3 mm 0.0 W/m2 CLR
06:48 11.1 °C 9.7 °C 1013.8 hPa Calm     91 % 0.3 mm 0.0 W/m2 CLR
06:53 11.1 °C 9.7 °C 1013.8 hPa Calm     91 % 0.3 mm 0.0 W/m2 CLR
06:58 11.1 °C 9.7 °C 1013.8 hPa Calm     91 % 0.3 mm 0.0 W/m2 CLR
07:03 11.1 °C 9.7 °C 1013.8 hPa Calm     91 % 0.0 mm 0.0 W/m2 CLR
07:08 11.1 °C 9.7 °C 1013.8 hPa Calm     91 % 0.0 mm 0.0 W/m2 CLR
07:14 11.1 °C 9.7 °C 1013.8 hPa Calm     91 % 0.0 mm 0.0 W/m2 CLR
07:19 11.1 °C 9.7 °C 1013.4 hPa Calm     91 % 0.0 mm 0.0 W/m2 CLR
07:24 11.1 °C 9.7 °C 1013.4 hPa Calm     91 % 0.0 mm 0.0 W/m2 CLR
07:29 11.1 °C 9.8 °C 1013.4 hPa Calm     92 % 0.0 mm 0.0 W/m2 OVC
07:34 11.1 °C 9.8 °C 1013.4 hPa Calm     92 % 0.0 mm 0.0 W/m2 OVC
07:39 11.1 °C 9.8 °C 1013.8 hPa Calm     92 % 0.0 mm 0.0 W/m2 OVC
07:44 11.1 °C 9.8 °C 1013.8 hPa Calm     92 % 0.0 mm 0.0 W/m2 OVC
07:49 11.1 °C 9.8 °C 1013.8 hPa Calm     92 % 0.0 mm 7.0 W/m2 OVC
07:54 11.1 °C 9.8 °C 1013.8 hPa Calm     92 % 0.0 mm 12.0 W/m2 OVC
07:59 11.1 °C 9.8 °C 1013.8 hPa Calm     92 % 0.0 mm 25.0 W/m2 OVC
08:04 10.6 °C 9.2 °C 1013.8 hPa Calm     91 % 0.0 mm 32.0 W/m2 OVC
08:09 10.6 °C 9.2 °C 1014.1 hPa Calm     91 % 0.0 mm 42.0 W/m2 OVC
08:14 10.6 °C 9.3 °C 1014.1 hPa Calm     92 % 0.0 mm 49.0 W/m2 OVC
08:19 10.6 °C 9.3 °C 1014.1 hPa Calm     92 % 0.0 mm 53.0 W/m2 OVC
08:24 10.6 °C 9.3 °C 1014.1 hPa Calm     92 % 0.0 mm 79.0 W/m2 OVC
08:29 10.6 °C 9.3 °C 1014.1 hPa Calm     92 % 0.0 mm 95.0 W/m2 OVC
08:34 10.6 °C 9.3 °C 1014.1 hPa Calm     92 % 0.0 mm 102.0 W/m2 OVC
08:39 10.6 °C 9.3 °C 1014.1 hPa Calm     92 % 0.0 mm 134.0 W/m2 SCT
08:44 11.1 °C 9.7 °C 1014.1 hPa Calm     91 % 0.0 mm 171.0 W/m2 CLR
08:49 11.7 °C 10.2 °C 1014.1 hPa Calm     91 % 0.0 mm 181.0 W/m2 CLR
08:54 12.2 °C 10.4 °C 1014.1 hPa Calm     89 % 0.0 mm 174.0 W/m2 CLR
08:59 12.8 °C 10.8 °C 1014.1 hPa Calm     88 % 0.0 mm 162.0 W/m2 CLR
09:04 12.8 °C 10.8 °C 1014.1 hPa Calm     88 % 0.0 mm 148.0 W/m2 CLR
09:09 12.8 °C 10.7 °C 1014.1 hPa Calm     87 % 0.0 mm 197.0 W/m2 CLR
09:14 13.3 °C 11.1 °C 1014.1 hPa Calm     86 % 0.0 mm 213.0 W/m2 CLR
09:19 13.3 °C 10.9 °C 1014.1 hPa Calm     85 % 0.0 mm 232.0 W/m2 CLR
09:24 13.3 °C 10.7 °C 1014.1 hPa Calm     84 % 0.0 mm 251.0 W/m2 CLR
09:29 13.3 °C 10.5 °C 1014.1 hPa Calm     83 % 0.0 mm 265.0 W/m2 CLR
09:34 13.3 °C 10.2 °C 1014.1 hPa Calm     81 % 0.0 mm 279.0 W/m2 CLR
09:39 13.3 °C 9.9 °C 1014.1 hPa Calm     80 % 0.0 mm 288.0 W/m2 CLR
09:44 13.9 °C 10.5 °C 1014.1 hPa Calm     80 % 0.0 mm 304.0 W/m2 CLR
09:49 13.9 °C 9.9 °C 1014.1 hPa Calm     77 % 0.0 mm 74.0 W/m2 CLR
09:54 13.9 °C 9.9 °C 1014.1 hPa Calm     77 % 0.0 mm 250.0 W/m2 CLR
09:59 13.9 °C 9.9 °C 1014.1 hPa Calm     77 % 0.0 mm 341.0 W/m2 CLR
10:04 14.4 °C 10.4 °C 1014.1 hPa Calm     77 % 0.0 mm 383.0 W/m2 CLR
10:05 14.4 °C 10.3 °C 1014.1 hPa Calm     76 % 0.0 mm 406.0 W/m2 CLR
10:10 16.1 °C 11.7 °C 1014.1 hPa Calm     75 % 0.0 mm 425.0 W/m2 CLR
10:15 16.7 °C 12.2 °C 1014.1 hPa Calm     75 % 0.0 mm 466.0 W/m2 CLR
10:20 17.2 °C 12.3 °C 1014.1 hPa Calm     73 % 0.0 mm 457.0 W/m2 CLR
10:25 17.2 °C 12.1 °C 1014.1 hPa Calm     72 % 0.0 mm 406.0 W/m2 CLR
10:30 17.8 °C 12.4 °C 1014.1 hPa NW 3.7 km/h 3.7 km/h 71 % 0.0 mm 181.0 W/m2 CLR
10:35 17.8 °C 12.0 °C 1014.1 hPa Calm     69 % 0.0 mm 139.0 W/m2 CLR
10:40 17.8 °C 12.0 °C 1014.1 hPa Calm     69 % 0.0 mm 120.0 W/m2 CLR
10:45 17.8 °C 12.0 °C 1014.1 hPa Calm     69 % 0.0 mm 90.0 W/m2 CLR
10:50 17.8 °C 12.0 °C 1014.4 hPa Calm     69 % 0.0 mm 88.0 W/m2 CLR
10:55 17.8 °C 12.9 °C 1014.4 hPa WNW 3.2 km/h 3.2 km/h 73 % 0.0 mm 116.0 W/m2 CLR
11:00 17.8 °C 13.3 °C 1014.1 hPa Calm     75 % 0.0 mm 165.0 W/m2 CLR
11:05 17.8 °C 13.7 °C 1014.1 hPa West 5.6 km/h 5.6 km/h 77 % 0.0 mm 172.0 W/m2 CLR
11:10 17.8 °C 13.9 °C 1014.1 hPa Calm     78 % 0.0 mm 199.0 W/m2 CLR
11:15 17.8 °C 13.9 °C 1014.1 hPa Calm     78 % 0.0 mm 213.0 W/m2 CLR
11:20 17.8 °C 13.9 °C 1014.1 hPa Calm     78 % 0.0 mm 202.0 W/m2 CLR
11:25 17.8 °C 13.9 °C 1014.1 hPa Calm     78 % 0.0 mm 248.0 W/m2 CLR
11:30 17.8 °C 14.1 °C 1014.1 hPa Calm     79 % 0.0 mm 527.0 W/m2 CLR
11:35 18.3 °C 14.2 °C 1014.1 hPa Calm     77 % 0.0 mm 322.0 W/m2 CLR
11:40 18.3 °C 14.2 °C 1014.1 hPa NNW 14.8 km/h 14.8 km/h 77 % 0.0 mm 622.0 W/m2 CLR
11:45 18.9 °C 14.6 °C 1013.8 hPa North 7.4 km/h 7.4 km/h 76 % 0.0 mm 624.0 W/m2 CLR
11:50 18.9 °C 14.6 °C 1013.8 hPa Calm     76 % 0.0 mm 577.0 W/m2 CLR
11:55 19.4 °C 15.1 °C 1013.8 hPa West 9.3 km/h 9.3 km/h 76 % 0.0 mm 615.0 W/m2 CLR
12:00 19.4 °C 14.5 °C 1013.4 hPa NNW 1.6 km/h 2.6 km/h 73 % 0.0 mm 534.0 W/m2 CLR
12:05 19.4 °C 14.1 °C 1013.4 hPa Calm     71 % 0.0 mm 480.0 W/m2 CLR
12:10 18.9 °C 13.5 °C 1013.4 hPa Calm     71 % 0.0 mm 260.0 W/m2 CLR
12:16 18.9 °C 13.3 °C 1013.4 hPa North 9.3 km/h 10.8 km/h 70 % 0.0 mm 401.0 W/m2 CLR
12:21 19.4 °C 13.8 °C 1013.4 hPa North 13.0 km/h 13.0 km/h 70 % 0.0 mm 642.0 W/m2 CLR
12:26 19.4 °C 13.6 °C 1013.1 hPa NNW 1.6 km/h   69 % 0.0 mm 387.0 W/m2 CLR
12:31 19.4 °C 13.6 °C 1013.1 hPa NNW 11.1 km/h 11.1 km/h 69 % 0.0 mm 274.0 W/m2 CLR
12:36 19.4 °C 13.8 °C 1013.1 hPa NNW 7.4 km/h 7.4 km/h 70 % 0.0 mm 258.0 W/m2 CLR
12:41 19.4 °C 13.8 °C 1013.1 hPa NW 1.9 km/h 1.9 km/h 70 % 0.0 mm 253.0 W/m2 CLR
12:46 19.4 °C 13.4 °C 1013.1 hPa NW 3.7 km/h   68 % 0.0 mm 272.0 W/m2 CLR
12:51 19.4 °C 13.4 °C 1012.8 hPa NNW 5.6 km/h 5.6 km/h 68 % 0.0 mm 332.0 W/m2 CLR
12:56 19.4 °C 12.2 °C 1012.8 hPa WNW 13.0 km/h 13.0 km/h 63 % 0.0 mm 311.0 W/m2 CLR
13:01 19.4 °C 12.2 °C 1012.8 hPa West 13.0 km/h 13.0 km/h 63 % 0.0 mm 264.0 W/m2 CLR
13:06 19.4 °C 11.5 °C 1012.8 hPa WNW 13.0 km/h 13.0 km/h 60 % 0.0 mm 299.0 W/m2 CLR
13:11 19.4 °C 11.2 °C 1012.8 hPa WNW 14.8 km/h 14.8 km/h 59 % 0.0 mm 320.0 W/m2 CLR
13:16 19.4 °C 10.9 °C 1012.4 hPa West 13.0 km/h 13.0 km/h 58 % 0.0 mm 309.0 W/m2 CLR
13:21 19.4 °C 12.2 °C 1012.4 hPa West 5.6 km/h 5.6 km/h 63 % 0.0 mm 272.0 W/m2 CLR
13:31 19.4 °C 11.2 °C 1012.4 hPa NW 13.0 km/h 13.0 km/h 59 % 0.0 mm 269.0 W/m2 CLR
13:36 19.4 °C 11.5 °C 1012.4 hPa West 9.3 km/h 9.3 km/h 60 % 0.0 mm 253.0 W/m2 CLR
13:41 19.4 °C 10.9 °C 1012.1 hPa WSW 5.6 km/h 5.6 km/h 58 % 0.0 mm 244.0 W/m2 CLR
13:46 19.4 °C 11.2 °C 1012.1 hPa West 9.3 km/h 9.3 km/h 59 % 0.0 mm 255.0 W/m2 CLR
13:47 19.4 °C 11.2 °C 1012.1 hPa WNW 9.7 km/h 9.7 km/h 59 % 0.0 mm 260.0 W/m2 CLR
13:52 19.4 °C 10.7 °C 1012.1 hPa West 5.6 km/h 5.6 km/h 57 % 0.0 mm 308.0 W/m2 CLR
13:57 19.4 °C 10.9 °C 1012.1 hPa WNW 5.6 km/h 5.6 km/h 58 % 0.0 mm 343.0 W/m2 CLR
14:02 19.4 °C 11.2 °C 1012.1 hPa WNW 12.9 km/h 12.9 km/h 59 % 0.0 mm 403.0 W/m2 CLR
14:07 20.0 °C 11.5 °C 1012.1 hPa WNW 9.3 km/h 9.3 km/h 58 % 0.0 mm 483.0 W/m2 CLR
14:12 20.0 °C 11.5 °C 1011.7 hPa West 5.6 km/h 5.6 km/h 58 % 0.0 mm 316.0 W/m2 CLR
14:17 19.4 °C 10.7 °C 1011.7 hPa WNW 11.1 km/h 11.1 km/h 57 % 0.0 mm 308.0 W/m2 CLR
14:22 19.4 °C 10.7 °C 1011.7 hPa WNW 14.8 km/h 14.8 km/h 57 % 0.0 mm 227.0 W/m2 CLR
14:27 19.4 °C 10.7 °C 1011.7 hPa West 5.6 km/h   57 % 0.0 mm 239.0 W/m2 CLR
14:32 19.4 °C 10.7 °C 1011.7 hPa NW 7.4 km/h 7.4 km/h 57 % 0.0 mm 221.0 W/m2 CLR
14:37 19.4 °C 10.7 °C 1011.7 hPa NW 7.4 km/h 7.4 km/h 57 % 0.0 mm 207.0 W/m2 CLR
14:42 19.4 °C 10.7 °C 1011.7 hPa WNW 8.0 km/h 8.0 km/h 57 % 0.0 mm 197.0 W/m2 CLR
14:47 19.4 °C 10.4 °C 1011.4 hPa West 5.6 km/h 5.6 km/h 56 % 0.0 mm 188.0 W/m2 CLR
14:52 18.9 °C 10.2 °C 1011.4 hPa WNW 5.6 km/h 5.6 km/h 57 % 0.0 mm 221.0 W/m2 CLR
14:57 19.4 °C 11.2 °C 1011.7 hPa WNW 11.3 km/h 11.3 km/h 59 % 0.0 mm 434.0 W/m2 CLR
15:02 19.4 °C 10.7 °C 1011.7 hPa NW 13.0 km/h 13.0 km/h 57 % 0.0 mm 230.0 W/m2 CLR
15:07 19.4 °C 10.2 °C 1011.7 hPa West 16.7 km/h 16.7 km/h 55 % 0.0 mm 271.0 W/m2 CLR
15:12 18.9 °C 9.9 °C 1011.7 hPa NW 14.8 km/h 14.8 km/h 56 % 0.0 mm 190.0 W/m2 CLR
15:17 18.9 °C 10.2 °C 1011.7 hPa West 5.6 km/h   57 % 0.0 mm 290.0 W/m2 CLR
15:22 19.4 °C 10.2 °C 1011.4 hPa WNW 14.8 km/h 14.8 km/h 55 % 0.0 mm 401.0 W/m2 CLR
15:27 19.4 °C 10.4 °C 1011.4 hPa WNW 13.0 km/h 13.0 km/h 56 % 0.0 mm 232.0 W/m2 CLR
15:32 19.4 °C 10.2 °C 1011.4 hPa West 5.6 km/h   55 % 0.0 mm 294.0 W/m2 CLR
15:37 19.4 °C 10.4 °C 1011.4 hPa NW 4.8 km/h 4.8 km/h 56 % 0.0 mm 285.0 W/m2 CLR
15:42 19.4 °C 10.2 °C 1011.4 hPa West 5.6 km/h 5.6 km/h 55 % 0.0 mm 258.0 W/m2 CLR
15:47 19.4 °C 10.4 °C 1011.4 hPa NW 11.1 km/h 11.1 km/h 56 % 0.0 mm 141.0 W/m2 CLR
15:52 18.9 °C 9.9 °C 1011.4 hPa WNW 14.8 km/h 14.8 km/h 56 % 0.0 mm 257.0 W/m2 CLR
15:57 18.9 °C 9.9 °C 1011.4 hPa WNW 11.1 km/h 11.1 km/h 56 % 0.0 mm 139.0 W/m2 CLR
16:02 18.9 °C 10.4 °C 1011.4 hPa WNW 14.8 km/h 14.8 km/h 58 % 0.0 mm 130.0 W/m2 CLR
16:07 18.9 °C 10.4 °C 1011.4 hPa WNW 14.8 km/h 14.8 km/h 58 % 0.0 mm 97.0 W/m2 CLR
16:12 18.9 °C 10.7 °C 1011.4 hPa WNW 4.8 km/h 4.8 km/h 59 % 0.0 mm 72.0 W/m2 CLR
16:17 18.9 °C 10.7 °C 1011.4 hPa WNW 11.1 km/h 11.1 km/h 59 % 0.0 mm 76.0 W/m2 FEW
16:22 18.9 °C 11.2 °C 1011.4 hPa WNW 11.1 km/h 11.1 km/h 61 % 0.0 mm 162.0 W/m2 CLR
16:27 18.9 °C 11.2 °C 1011.4 hPa Calm     61 % 0.0 mm 83.0 W/m2 CLR
16:32 18.9 °C 11.4 °C 1011.4 hPa West 13.0 km/h 13.0 km/h 62 % 0.0 mm 79.0 W/m2 CLR
16:37 18.3 °C 11.2 °C 1011.7 hPa WSW 11.1 km/h 11.1 km/h 63 % 0.0 mm 79.0 W/m2 FEW
16:42 18.3 °C 11.4 °C 1011.7 hPa West 9.3 km/h 9.3 km/h 64 % 0.0 mm 58.0 W/m2 FEW
16:47 18.3 °C 11.6 °C 1011.7 hPa West 6.4 km/h 6.4 km/h 65 % 0.0 mm 40.0 W/m2 SCT
16:52 18.3 °C 11.9 °C 1011.7 hPa West 9.3 km/h 9.3 km/h 66 % 0.0 mm 30.0 W/m2 BKN
16:57 18.3 °C 12.1 °C 1011.7 hPa West 5.6 km/h 5.6 km/h 67 % 0.0 mm 25.0 W/m2 BKN
17:02 18.3 °C 12.3 °C 1012.1 hPa WSW 8.0 km/h 8.0 km/h 68 % 0.0 mm 18.0 W/m2 BKN
17:08 18.3 °C 12.6 °C 1012.1 hPa WSW 14.8 km/h 14.8 km/h 69 % 0.0 mm 12.0 W/m2 BKN
17:13 18.3 °C 12.8 °C 1011.7 hPa WSW 7.4 km/h 7.4 km/h 70 % 0.0 mm 11.0 W/m2 BKN
17:18 18.3 °C 13.0 °C 1011.7 hPa SW 11.1 km/h 11.1 km/h 71 % 0.0 mm 9.0 W/m2 BKN
17:23 17.8 °C 12.7 °C 1011.7 hPa SW 14.8 km/h 14.8 km/h 72 % 0.0 mm 5.0 W/m2 BKN
17:28 17.8 °C 12.9 °C 1012.1 hPa SW 44.4 km/h 44.4 km/h 73 % 0.3 mm 5.0 W/m2 RA
17:33 16.1 °C 12.3 °C 1012.1 hPa SW 27.4 km/h 27.4 km/h 78 % 2.0 mm 7.0 W/m2 RA
17:38 15.0 °C 11.4 °C 1012.4 hPa SW 24.1 km/h 24.1 km/h 79 % 2.3 mm 5.0 W/m2 RA
17:43 15.0 °C 11.6 °C 1012.1 hPa SSW 22.2 km/h 22.2 km/h 80 % 2.3 mm 0.0 W/m2 CLR
17:45 14.4 °C 11.1 °C 1012.1 hPa SSW 25.9 km/h 25.9 km/h 80 % 2.3 mm 0.0 W/m2 CLR
17:50 14.4 °C 11.1 °C 1012.1 hPa SSW 27.8 km/h 27.8 km/h 80 % 2.3 mm 0.0 W/m2 OVC
17:55 14.4 °C 11.2 °C 1012.1 hPa SSW 27.8 km/h 27.8 km/h 81 % 2.3 mm 0.0 W/m2 OVC
18:00 13.9 °C 11.1 °C 1012.4 hPa SSW 25.9 km/h 25.9 km/h 83 % 2.3 mm 0.0 W/m2 OVC
18:05 13.9 °C 11.1 °C 1012.4 hPa SSW 20.4 km/h 20.4 km/h 83 % 2.3 mm 0.0 W/m2 CLR
18:10 13.9 °C 11.2 °C 1012.4 hPa SSW 5.6 km/h 5.6 km/h 84 % 2.3 mm 0.0 W/m2 CLR
18:15 13.9 °C 11.2 °C 1012.8 hPa Calm     84 % 2.3 mm 0.0 W/m2 CLR
18:20 13.9 °C 11.4 °C 1012.8 hPa Calm     85 % 2.3 mm 0.0 W/m2 CLR
18:25 13.3 °C 10.9 °C 1013.1 hPa Calm     85 % 2.3 mm 0.0 W/m2 CLR
18:30 13.3 °C 11.1 °C 1013.1 hPa Calm     86 % 1.0 mm 0.0 W/m2 CLR
18:35 13.3 °C 10.9 °C 1013.1 hPa Calm     85 % 0.0 mm 0.0 W/m2 CLR
18:40 13.3 °C 11.1 °C 1013.1 hPa Calm     86 % 0.0 mm 0.0 W/m2 CLR
18:45 13.3 °C 11.1 °C 1013.4 hPa Calm     86 % 0.0 mm 0.0 W/m2 CLR
18:50 13.3 °C 11.1 °C 1013.4 hPa Calm     86 % 0.0 mm 0.0 W/m2 CLR
18:55 13.3 °C 11.1 °C 1013.4 hPa Calm     86 % 0.0 mm 0.0 W/m2 CLR
19:00 13.3 °C 10.9 °C 1013.4 hPa Calm     85 % 0.0 mm 0.0 W/m2 CLR
19:05 13.3 °C 11.1 °C 1013.8 hPa Calm     86 % 0.0 mm 0.0 W/m2 CLR
19:10 12.8 °C 10.5 °C 1013.4 hPa Calm     86 % 0.0 mm 0.0 W/m2 CLR
19:15 12.8 °C 10.7 °C 1013.8 hPa Calm     87 % 0.0 mm 0.0 W/m2 CLR
19:20 12.8 °C 10.8 °C 1013.8 hPa Calm     88 % 0.0 mm 0.0 W/m2 CLR
19:25 12.8 °C 10.7 °C 1013.8 hPa Calm     87 % 0.0 mm 0.0 W/m2 CLR
19:30 12.8 °C 10.7 °C 1013.8 hPa Calm     87 % 0.0 mm 0.0 W/m2 CLR
19:35 13.3 °C 11.2 °C 1013.8 hPa Calm     87 % 0.0 mm 0.0 W/m2 CLR
19:40 13.3 °C 11.2 °C 1013.8 hPa Calm     87 % 0.0 mm 0.0 W/m2 CLR
19:45 13.3 °C 11.2 °C 1013.8 hPa Calm     87 % 0.0 mm 0.0 W/m2 CLR
19:50 12.8 °C 10.7 °C 1013.8 hPa Calm     87 % 0.0 mm 0.0 W/m2 CLR
19:55 12.8 °C 10.7 °C 1013.8 hPa Calm     87 % 0.0 mm 0.0 W/m2 CLR
20:00 12.8 °C 10.7 °C 1013.8 hPa Calm     87 % 0.0 mm 0.0 W/m2 CLR
20:05 12.8 °C 10.8 °C 1013.8 hPa Calm     88 % 0.0 mm 0.0 W/m2 CLR
20:10 12.8 °C 10.8 °C 1013.8 hPa Calm     88 % 0.0 mm 0.0 W/m2 CLR
20:15 12.8 °C 10.8 °C 1014.1 hPa Calm     88 % 0.0 mm 0.0 W/m2 CLR
20:20 12.8 °C 10.8 °C 1014.1 hPa Calm     88 % 0.0 mm 0.0 W/m2 CLR
20:25 12.8 °C 11.0 °C 1013.8 hPa Calm     89 % 0.0 mm 0.0 W/m2 CLR
20:26 12.8 °C 11.0 °C 1013.8 hPa Calm     89 % 0.0 mm 0.0 W/m2 CLR
20:31 12.2 °C 10.4 °C 1013.8 hPa Calm     89 % 0.0 mm 0.0 W/m2 CLR
20:36 12.2 °C 10.4 °C 1014.1 hPa Calm     89 % 0.0 mm 0.0 W/m2 CLR
20:41 12.2 °C 10.4 °C 1014.1 hPa Calm     89 % 0.0 mm 0.0 W/m2 CLR
20:46 12.2 °C 10.4 °C 1014.1 hPa Calm     89 % 0.0 mm 0.0 W/m2 CLR
20:51 12.2 °C 10.6 °C 1014.1 hPa Calm     90 % 0.0 mm 0.0 W/m2 CLR
20:56 12.2 °C 10.4 °C 1014.1 hPa Calm     89 % 0.0 mm 0.0 W/m2 CLR
21:01 12.2 °C 9.6 °C 1014.1 hPa SSW 11.1 km/h 11.1 km/h 84 % 0.0 mm 0.0 W/m2 CLR
21:06 12.2 °C 9.1 °C 1014.1 hPa SSW 5.6 km/h 5.6 km/h 81 % 0.0 mm 0.0 W/m2 CLR
21:11 12.2 °C 8.5 °C 1014.1 hPa SSW 14.8 km/h 14.8 km/h 78 % 0.0 mm 0.0 W/m2 CLR
21:16 12.2 °C 7.9 °C 1014.1 hPa South 7.4 km/h 7.4 km/h 75 % 0.0 mm 0.0 W/m2 CLR
21:21 12.2 °C 7.5 °C 1014.1 hPa SSW 14.8 km/h 14.8 km/h 73 % 0.0 mm 0.0 W/m2 CLR
21:26 12.2 °C 7.5 °C 1014.4 hPa SSW 9.7 km/h 9.7 km/h 73 % 0.0 mm 0.0 W/m2 CLR
21:31 12.2 °C 7.5 °C 1014.4 hPa SSW 12.9 km/h 12.9 km/h 73 % 0.0 mm 0.0 W/m2 CLR
21:36 12.2 °C 7.3 °C 1014.4 hPa SSW 14.8 km/h 14.8 km/h 72 % 0.0 mm 0.0 W/m2 CLR
21:41 12.2 °C 7.3 °C 1014.4 hPa SSW 13.0 km/h 13.0 km/h 72 % 0.0 mm 0.0 W/m2 CLR
21:46 12.2 °C 7.3 °C 1014.4 hPa SSW 14.8 km/h 14.8 km/h 72 % 0.0 mm 0.0 W/m2 CLR
21:51 12.2 °C 7.3 °C 1014.8 hPa South 16.7 km/h 16.7 km/h 72 % 0.0 mm 0.0 W/m2 CLR
21:56 12.2 °C 7.5 °C 1014.4 hPa SSW 18.5 km/h 18.5 km/h 73 % 0.0 mm 0.0 W/m2 CLR
22:01 12.8 °C 8.1 °C 1014.8 hPa SSW 18.5 km/h 18.5 km/h 73 % 0.0 mm 0.0 W/m2 CLR
22:06 13.3 °C 8.6 °C 1014.8 hPa SSW 18.5 km/h 18.5 km/h 73 % 0.0 mm 0.0 W/m2 CLR
22:11 13.3 °C 8.6 °C 1014.8 hPa SW 20.4 km/h 20.4 km/h 73 % 0.0 mm 0.0 W/m2 CLR
22:16 13.3 °C 8.8 °C 1014.8 hPa SSW 18.5 km/h 18.5 km/h 74 % 0.0 mm 0.0 W/m2 CLR
22:21 13.3 °C 9.0 °C 1014.8 hPa SW 18.5 km/h 18.5 km/h 75 % 0.0 mm 0.0 W/m2 CLR
22:26 13.3 °C 9.2 °C 1015.1 hPa SW 22.2 km/h 22.2 km/h 76 % 0.0 mm 0.0 W/m2 CLR
22:31 13.3 °C 9.4 °C 1015.1 hPa SSW 24.1 km/h 24.1 km/h 77 % 0.0 mm 0.0 W/m2 CLR
22:36 13.3 °C 9.6 °C 1015.1 hPa SW 18.5 km/h 18.5 km/h 78 % 0.0 mm 0.0 W/m2 CLR
22:41 13.3 °C 9.8 °C 1015.1 hPa SSW 22.2 km/h 22.2 km/h 79 % 0.0 mm 0.0 W/m2 CLR
22:42 13.3 °C 9.9 °C 1015.1 hPa SW 22.5 km/h 22.5 km/h 80 % 0.0 mm 0.0 W/m2 CLR
22:47 13.3 °C 10.2 °C 1015.1 hPa SW 22.2 km/h 22.2 km/h 81 % 0.0 mm 0.0 W/m2 CLR
22:52 13.3 °C 10.2 °C 1015.1 hPa SW 20.4 km/h 20.4 km/h 81 % 0.0 mm 0.0 W/m2 CLR
22:57 13.3 °C 10.2 °C 1015.1 hPa SSW 18.5 km/h 18.5 km/h 81 % 0.0 mm 0.0 W/m2 CLR
23:02 13.3 °C 10.3 °C 1015.1 hPa SW 22.2 km/h 22.2 km/h 82 % 0.0 mm 0.0 W/m2 CLR
23:07 13.3 °C 10.3 °C 1014.8 hPa SSW 25.9 km/h 25.9 km/h 82 % 0.0 mm 0.0 W/m2 CLR
23:12 13.3 °C 10.5 °C 1014.8 hPa SSW 27.8 km/h 27.8 km/h 83 % 0.0 mm 0.0 W/m2 CLR
23:17 13.3 °C 10.7 °C 1014.8 hPa SSW 18.5 km/h 18.5 km/h 84 % 0.0 mm 0.0 W/m2 CLR
23:22 12.8 °C 10.2 °C 1014.8 hPa SSW 18.5 km/h 18.5 km/h 84 % 0.0 mm 0.0 W/m2 CLR
23:27 12.8 °C 10.3 °C 1014.8 hPa South 18.5 km/h 18.5 km/h 85 % 0.0 mm 0.0 W/m2 CLR
23:32 12.8 °C 10.5 °C 1014.8 hPa SSW 20.4 km/h 20.4 km/h 86 % 0.0 mm 0.0 W/m2 CLR
23:35 12.8 °C 10.5 °C 1014.8 hPa SSW 20.4 km/h 20.4 km/h 86 % 0.0 mm 0.0 W/m2 CLR
23:40 12.8 °C 10.3 °C 1014.8 hPa SSW 24.1 km/h 24.1 km/h 85 % 0.0 mm 0.0 W/m2 CLR
23:45 12.8 °C 10.2 °C 1014.8 hPa SSW 19.3 km/h 19.3 km/h 84 % 0.0 mm 0.0 W/m2 CLR
23:50 13.3 °C 10.7 °C 1014.8 hPa SW 25.9 km/h 25.9 km/h 84 % 0.0 mm 0.0 W/m2 CLR
23:55 13.3 °C 10.7 °C 1014.8 hPa SW 29.6 km/h 29.6 km/h 84 % 0.0 mm 0.0 W/m2 CLR
Lo Temps de Massalio
Compliments of Weather Underground - 1.25 mb